Find Starlink 32894

NORAD ID: 62969 Int'l Des: 2025-029 Owner: SPXS Country: US Constellation: starlink operational
LEOCIRCULAR

Live Position

Loading 3D Globe...

About Starlink 32894

Description loading...

Upcoming Passes

Passes for default location (London). Set your location on the main map for personalized predictions.

Altitude History

Loading altitude history...

Two-Line Element Set

1 62969U 25029X 26104.17766981 .00018894 00000-0 64820-3 0 9991
2 62969 53.1572 67.4225 0001880 94.1637 265.9578 15.30210242 66756
Epoch: Apr 14, 2026 • Age: 5 hours

Current Status

Altitude 478.3 km
Velocity 7.63 km/s
Sub-Earth Point 43.44°N, 143.44°W
Launch Date Feb 11, 2025
Age 1.1 years
Type internet

Technical Details

Classification Payload
Mass 730.00 kg
Dry Mass 700.00 kg
Total Mass 730.00 kg
Length 0.30 m
Diameter 4.10 m
Span 29.00 m
Shape Box + pan
Manufacturer SPXS
Bus Type Starlink V2M
Phase Status In Orbit
Owner/State SPXS/US

Most Searched